Location: Akdamlar
(36.8729°N, 30.5187°E)
Time: 18:25:52
(UTC+00:00)

ARGOS - Pass Details

Date: 18 September 2020
Orbit: 821 x 834 km, 98.4° (Epoch: 27 October)

Event Time Altitude Azimuth Distance (km) Brightness Sun altitude
Exits shadow 17:30:34 - 170° (S) 2,948 5.8 -18.6°
Reaches altitude 10° 17:31:56 10° 171° (S) 2,408 5.3 -18.8°
Maximum altitude 17:37:16 77° 257° (WSW) 847 3.2 -19.8°
Drops below altitude 10° 17:42:39 10° 344° (NNW) 2,428 6.0 -20.9°
Sets 17:45:01 0° 346° (NNW) 3,367 6.8 -21.3°
